Location: Lake Lucerne
(45.5315°N, 88.8489°W)
Time: 20:20:14
(UTC-05:00)

ARIANE 6 FM1 Upper Stage - Pass Details

Date: 26 September 2024
Orbit: 563 x 594 km, 62.0° (Epoch: 09 October)

Event Time Altitude Azimuth Distance (km) Brightness Sun altitude
Rises 21:47:26 0° 289° (WNW) 2,802 7.3 -31.3°
Reaches altitude 10° 21:51:15 10° 324° (NW) 1,914 6.2 -31.9°
Maximum altitude 21:52:42 11° 344° (NNW) 1,825 5.8 -32.1°
Drops below altitude 10° 21:54:09 10° 3° (N) 1,922 5.7 -32.3°
Enters shadow 21:54:27 - 7° (N) 1,964 5.7 -32.3°
